Regional Weather Roundup
Issued by NWS Jackson, KY

Home | Current Version | Previous Version | Text Only | Print | Product List | Glossary On
Versions: 1 2 3 4 5 6 7 8 9 10 11 12 13 14 15 16 17 18 19 20 21 22 23 24 25 26 27 28 29 30 31 32 33 34 35 36 37 38 39 40 41 42 43 44 45 46 47 48 49
000
ASUS43 KJKL 031310
RWRJKL

EAST KENTUCKY HOURLY WEATHER ROUNDUP
NATIONAL WEATHER SERVICE JACKSON KY
900 AM EDT MON AUG 03 2015

NOTE: "FAIR" INDICATES FEW OR NO CLOUDS BELOW 12,000 FEET WITH
NO SIGNIFICANT WEATHER AND/OR OBSTRUCTIONS TO VISIBILITY.

* THESE REPORTS ARE NOT UNDER NWS QUALITY CONTROL AND MAY NOT
  REPORT WEATHER SUCH AS PRECIPITATION AND FOG.

KYZ079-080-083-085-087-088-110-112-115-119-120-031400
...EASTERN KENTUCKY...

CITY           SKY/WX    TMP DP  RH WIND       PRES   REMARKS
JACKSON        MOSUNNY   70  63  78 CALM      30.03R
LONDON         MOSUNNY   69  62  78 CALM      29.99R
SOMERSET*      PTSUNNY   64  64 100 CALM      29.98R
MONTICELLO*    SUNNY     71  66  84 CALM      29.99S
WILLIAMSBURG*  SUNNY     66  66 100 SE3       29.99S
MIDDLESBORO*   CLOUDY    61  61 100 CALM      30.01S FOG
HAZARD APT*    SUNNY     68  66  94 NE3       30.02R
BLACK MTN*       N/A     68  59  73 N3          N/A
PIKEVILLE APT* PTSUNNY   66  63  88 N8        30.03R
BIG SANDY*     MOSUNNY   70  63  79 N5        30.03R
MOREHEAD APT*  CLOUDY    68  59  73 NE10G16   30.02F
$$

KYZ035-036-041-042-044-050-067-078-099-031400
...CENTRAL KENTUCKY...

CITY           SKY/WX    TMP DP  RH WIND       PRES   REMARKS
MT STERLING*   CLOUDY    68  61  77 E13G18    30.01F
FLEMING/MASON* MOSUNNY   64  63  94 SE21      29.90F
DANVILLE*      CLOUDY    66  61  82 E14G22    30.02R
RICHMOND*      CLOUDY    66  61  82 NE12G17   30.01R
LEXINGTON      PTSUNNY   67  62  84 E15G23    29.96F
FRANKFORT      PTSUNNY   67  62  84 E7        29.96F
$$

KYZ091>093-OHZ055-061-077-WVZ005-015-034-035-042-031400
...SOUTHERN OHIO/WEST VIRGINIA...

CITY           SKY/WX    TMP DP  RH WIND       PRES   REMARKS
COVINGTON      PTSUNNY   65  65 100 S8        29.90F
COLUMBUS       CLOUDY    66  61  84 S9        29.84S
DAYTON         PTSUNNY   65  63  93 SW15      29.87R
WILMINGTON     CLOUDY    64  60  87 SE6       29.87R
HUNTINGTON     PTSUNNY   69  62  78 VRB3      30.00R
CHARLESTON     PTSUNNY   70  63  78 SW5       29.99S
PINEVILLE*     PTSUNNY   66  64  92 MISG      30.07R
BECKLEY        MOSUNNY   69  57  65 W3        30.05R
BLUEFIELD      MOSUNNY   70  57  63 W5        30.07R
$$

VAZ002-007-008-TNZ017-027-036-066-071-031400
...SOUTHWEST VIRGINIA/EAST TENNESSEE...

CITY           SKY/WX    TMP DP  RH WIND       PRES   REMARKS
WISE*          SUNNY     73  55  53 NW6       30.08R
ABINGDON*      MOSUNNY   73  58  59 CALM      30.03R
BRISTOL        MOSUNNY   70  63  78 CALM      30.01R
OAK RIDGE      MOSUNNY   70  63  78 CALM      29.99R
CROSSVILLE     SUNNY     72  62  71 CALM      30.02R
NASHVILLE      MOSUNNY   73  66  78 CALM      29.95S
$$

...KEY TO REMARKS...
VSB - VISIBILITY IN MILES
WCI - WIND CHILL INDEX
HX  - HEAT INDEX

$$


USA.gov is the U.S. government's official web portal to all federal, state and local government web resources and services.